Lewistown, MT

2:53 PM MDT on August 23, 2014 (GMT -0600)
3/4 mile S of Lewistown | Change Station
CLOSE
Current Station
Personal Weather Station
Location: Lewistown, Mt
Elevation: 4189 ft
Nearby Weather Stations

Elev 4189 ft 47.04 °N, 109.42 °W | Updated 7 seconds ago

Rain
Rain Mist
46.5 °F
Feels Like 46 °F
N
0.0
Wind Variable Wind from NNE
Gusts 0.0 mph

Today
High -- | Low -- °F
--% Chance of Precip.
Yesterday
High -- | Low -- °F
Precip. -- in
6:25 AM 8:14 PM
Waning Crescent, 3% visible
Pressure 30.04 in
Visibility 4.0 miles
Clouds Few 700 ft
Mostly Cloudy 1500 ft
Overcast 5000 ft
Windchill 46 °F
Dew Point 46 °F
Humidity 97%
Rainfall 1.67 in
Snow Depth 1 in
UV 3 out of 12
Pollen .90 out of 12
Air Quality Not available.
Flu Activity Not available.
SPECI KLWT 232021Z AUTO 35014G24KT 4SM RA BR FEW007 BKN015 OVC050 09/08 A3004 RMK AO2 PK WND 35029/2002 P0008 T00940083

More Conditions Fewer Conditions

Pressure 30.04 in
Visibility 4.0 miles
Clouds Few 700 ft
Mostly Cloudy 1500 ft
Overcast 5000 ft
Windchill 46 °F
Dew Point 46 °F
Humidity 97%
Rainfall 1.67 in
Snow Depth 1 in
UV 3 out of 12
Pollen .90 out of 12
Air Quality Not available.
Flu Activity Not available.
SPECI KLWT 232021Z AUTO 35014G24KT 4SM RA BR FEW007 BKN015 OVC050 09/08 A3004 RMK AO2 PK WND 35029/2002 P0008 T00940083

More Conditions Fewer Conditions

10-Day Weather Forecast

Almanac

Astronomy

Aug. 23, 2014 Rise Set
Actual Time 6:25 AM MDT 8:14 PM MDT
Civil Twilight 5:52 AM MDT 8:46 PM MDT
Nautical Twilight 5:13 AM MDT 9:26 PM MDT
Astronomical Twilight 4:29 AM MDT 10:09 PM MDT
Moon 4:42 AM MDT 7:01 PM MDT
Length of Visible Light 14h 53m
Length of Day
13h 48m
Tomorrow will be 3m 10s shorter.
Waning Crescent, 3% of the Moon is Illuminated
Today
Waning Crescent
Aug 25
New
Sep 2
First Quarter
Sep 8
Full
Sep 15
Last Quarter

Today's Extremes

State Highs State Lows

Community

WunderPhotos

Upload Photos

1,746,622 photos uploaded!

WunderBlogs® & News

By Dr. Jeff Masters
Director of Meteorology, Weather Underground
By Kari Strenfel
Meteorologist, Weather Underground
By Christopher C. Burt
Weather Historian, Weather Underground
August 23, 2014
August 23, 2014
August 23, 2014

Nearby

Snow Depth

Station Depth Elevation
Crystal Lake 1 in 6050 ft
Daisy Peak 0 in 7600 ft
Spur Park 0 in 8100 ft
Deadman Creek 0 in 6450 ft
Onion Park 0 in 7410 ft

Earthquake Activity

City Distance Mag. Time & Date
No recent earthquake activity has been reported nearby.
Minimum magnitude displayed is 2.5.

Coastal Water Temperatures

Place Temperature
No Stations Reporting

Nearby Weather Stations